Regional Weather Roundup
Issued by NWS

Home | Current Version | Previous Version | Graphics & Text | Print | Product List | Glossary On
Versions: 1 2 3 4 5 6 7 8 9 10 11 12 13 14 15 16 17 18 19 20 21 22 23 24 25 26 27 28 29 30 31 32 33 34 35 36 37 38 39 40 41 42 43 44 45 46 47 48 49 50
000
ASUS43 KDMX 211107
RWRIA

WEATHER ROUNDUP FOR IOWA
NATIONAL WEATHER SERVICE DES MOINES IA
600 AM CDT TUE OCT 21 2014

NOTE: "FAIR" INDICATES FEW OR NO CLOUDS BELOW 12,000 FEET WITH NO
SIGNIFICANT WEATHER AND/OR OBSTRUCTIONS TO VISIBILITY.

* - THESE STATIONS ARE NOT NWS STATIONS...THUS NOT UNDER NWS
QUALITY CONTROL.  THEY ALSO DO NOT REPORT WEATHER SUCH
AS PRECIPITATION OR FOG.

IAZ001>003-012>014-020>022-031>034-043>046-211200-
   NORTHWEST IOWA

CITY           SKY/WX    TMP DP  RH WIND       PRES   REMARKS
CARROLL *      CLEAR     34  34 100 CALM      30.12R
CHEROKEE *     CLEAR     34  34 100 CALM      30.12R
DENISON *      CLEAR     36  36 100 CALM      30.10R
LE MARS *      CLEAR     36  36 100 CALM      30.11R
ORANGE CITY *  CLEAR     46  37  71 E3        30.11R
SHELDON *      CLEAR     39  36  87 E7        30.10R WCI  34
SIOUX CITY     CLEAR     38  36  92 E3        30.10S
SPENCER        CLEAR     31  29  92 CALM      30.12R
STORM LAKE *   CLEAR     43  37  81 E5        30.12R
$$

IAZ055>058-069>071-079>083-090>094-211200-
   SOUTHWEST IOWA

CITY           SKY/WX    TMP DP  RH WIND       PRES   REMARKS
ATLANTIC *     CLEAR     34  34 100 N5        30.11S WCI  30
AUDUBON *      CLEAR     34  28  80 CALM      30.12R
CLARINDA *     CLEAR     34  34 100 CALM      30.14R
COUNCIL BLFS * CLEAR     46  43  87 E3        30.09S
CRESTON *      CLEAR     43  37  81 NE7       30.12R
HARLAN  *      CLEAR     36  36 100 N3        30.15R
LAMONI         CLEAR     44  39  82 N6        30.11R
RED OAK *      CLEAR     37  37 100 CALM      30.11S
SHENANDOAH *     N/A     36  36 100 CALM      30.12R
$$

IAZ047>049-059>061-072>074-084-211200-
   CENTRAL IOWA

CITY           SKY/WX    TMP DP  RH WIND       PRES   REMARKS
AMES           CLEAR     39  36  89 CALM      30.12R
ANKENY *       CLEAR     37  37 100 NE3       30.12R
CHARITON *     CLEAR     41  39  93 W6        30.11R
DES MOINES     CLEAR     44  40  85 CALM      30.12R
GRINNELL*      CLEAR     41  37  87 E5        30.12R
KNOXVILLE *    CLEAR     43  39  87 CALM      30.10R
MARSHALLTOWN   CLEAR     39  37  92 E5        30.12R
PELLA *          N/A     43  39  87 NE3       30.12R
PERRY *          N/A     36  36 100 N3        30.11S
$$

IAZ004>006-015-016-023>025-035-036-211200-
   NORTH CENTRAL IOWA

CITY           SKY/WX    TMP DP  RH WIND       PRES   REMARKS
ALGONA *       CLEAR     34  32  93 CALM      30.13R
CLARION *      CLEAR     39  39 100 E8        30.12R WCI  34
ESTHERVILLE    CLEAR     32  30  92 CALM      30.12R
FORT DODGE *   CLEAR     36  32  87 CALM      30.13R
MASON CITY     CLEAR     35  34  96 NE3       30.15R
FOREST CITY *  CLEAR     36  36 100 CALM      30.13R
IOWA FALLS *     N/A     39  37  93 NE3       30.13R
$$

IAZ007>011-017>019-026>030-037>042-050>054-066-211200-
   NORTHEAST IOWA

CITY           SKY/WX    TMP DP  RH WIND       PRES   REMARKS
CEDAR RAPIDS   CLEAR     39  38  96 N5        30.11R
CHARLES CITY * CLEAR     37  36  93 NE9       30.15R WCI  31
CLINTON *      CLEAR     37  36  93 N8        30.15R WCI  31
DECORAH *      PTCLDY    37  37 100 CALM      30.14R
DUBUQUE        CLEAR     39  36  89 CALM      30.13R
MONTICELLO *   CLEAR     36  36 100 CALM      30.13R
OELWEIN *      CLEAR     37  36  93 NE6       30.14R WCI  33
WATERLOO       CLEAR     34  32  92 CALM      30.13R
$$

IAZ064-065-067-068-078-211200-
   EAST CENTRAL IOWA

CITY           SKY/WX    TMP DP  RH WIND       PRES   REMARKS
DAVENPORT      CLEAR     37  35  92 N6        30.12R WCI  32
IOWA CITY      CLEAR     38  37  97 CALM      30.13R
MT. PLEASANT * CLEAR     37  37 100 N3        30.11R
MUSCATINE *    CLEAR     39  37  93 CALM      30.12R
QUAD CITIES    CLEAR     37  36  96 CALM      30.11R
$$

IAZ062-063-075>077-085>089-095>099-211200-
   SOUTHEAST IOWA

CITY           SKY/WX    TMP DP  RH WIND       PRES   REMARKS
BURLINGTON     CLEAR     40  39  97 N5        30.10R
FAIRFIELD *      N/A     41  37  87 NE6       30.11R
FORT MADISON * CLEAR     43  43 100 NE3       30.10R
KEOKUK *       CLEAR     43  41  93 CALM      30.09R
OSKALOOSA *      N/A     39  37  93 NE6       30.11R WCI  35
CENTERVILLE *  CLEAR     39  39 100 NW5       30.11R
OTTUMWA        CLEAR     39  36  89 NE3       30.10R
WASHINGTON *   CLEAR     41  41 100 NE5       30.12R
$$

ABBREVIATIONS USED IN REMARKS
   TC - TEMPERATURES IN CELSIUS
  WCI - WIND CHILL INDEX
   HX - HEAT INDEX
  VSB - VISIBILITY
$$



USA.gov is the U.S. government's official web portal to all federal, state and local government web resources and services.